When you browse on this site, cookies collect data to enhance your experience and personalize the content and advertising you see.
Visit our Privacy Policy to learn more. By continuing to use the site, you agree to this use of cookies and data.
  • In Czech Republic
  • List of Countries
  • For 7 days
  • Water Temperature
  • Weather Map
  • Weather Widgets
  • user-avatar
    Login

    Hourly Weather Pitea

    Today, 7 June, Sunday

    Time Temperature Precipitation Wind Pressure Humidity
    00:00 +8°C° 0.3 mm 5 mps 744 mmHg 95%
    01:00 +7°C° 0 mm 5 mps 744 mmHg 95%
    02:00 +7°C° 0.4 mm 5 mps 744 mmHg 95%
    03:00 +7°C° 0.4 mm 5 mps 744 mmHg 96%
    04:00 +7°C° 0.4 mm 5 mps 743 mmHg 96%
    05:00 +7°C° 0.7 mm 5 mps 743 mmHg 95%
    06:00 +8°C° 0.7 mm 5 mps 743 mmHg 94%
    07:00 +8°C° 0.7 mm 4 mps 744 mmHg 93%
    08:00 +8°C° 0.9 mm 5 mps 744 mmHg 93%
    09:00 +9°C° 0.9 mm 6 mps 744 mmHg 92%
    10:00 +9°C° 0.9 mm 7 mps 745 mmHg 92%
    11:00 +10°C° 0.1 mm 8 mps 745 mmHg 88%
    12:00 +10°C° 0.1 mm 9 mps 746 mmHg 84%
    13:00 +11°C° 0.1 mm 10 mps 746 mmHg 80%
    14:00 +11°C° 0.1 mm 9 mps 747 mmHg 78%
    15:00 +11°C° 0.1 mm 9 mps 747 mmHg 77%
    16:00 +11°C° 0.1 mm 9 mps 747 mmHg 76%
    17:00 +11°C° 0 mm 9 mps 748 mmHg 77%
    18:00 +11°C° 0 mm 8 mps 748 mmHg 77%
    19:00 +11°C° 0 mm 7 mps 749 mmHg 78%
    20:00 +11°C° 0 mm 7 mps 749 mmHg 81%
    21:00 +11°C° 0 mm 7 mps 750 mmHg 83%
    22:00 +11°C° 0 mm 7 mps 750 mmHg 86%
    23:00 +10°C° 0 mm 6 mps 751 mmHg 87%

    Tomorrow, 8 June, Monday

    Time Temperature Precipitation Wind Pressure Humidity
    00:00 +10°C° 0 mm 6 mps 751 mmHg 88%
    01:00 +9°C° 0 mm 5 mps 752 mmHg 90%
    02:00 +9°C° 0 mm 5 mps 752 mmHg 85%
    03:00 +10°C° 0 mm 4 mps 753 mmHg 80%
    04:00 +8°C° 0 mm 4 mps 753 mmHg 75%
    05:00 +10°C° 0 mm 4 mps 753 mmHg 69%
    06:00 +11°C° 0 mm 4 mps 754 mmHg 62%
    07:00 +12°C° 0 mm 4 mps 754 mmHg 55%
    08:00 +13°C° 0 mm 4 mps 755 mmHg 52%
    09:00 +14°C° 0 mm 4 mps 755 mmHg 48%
    10:00 +15°C° 0 mm 5 mps 756 mmHg 45%
    11:00 +16°C° 0 mm 5 mps 756 mmHg 44%
    12:00 +16°C° 0 mm 5 mps 756 mmHg 44%
    13:00 +17°C° 0 mm 5 mps 756 mmHg 43%
    14:00 +17°C° 0 mm 5 mps 756 mmHg 43%
    15:00 +18°C° 0 mm 4 mps 757 mmHg 43%
    16:00 +18°C° 0 mm 4 mps 757 mmHg 42%
    17:00 +17°C° 0 mm 4 mps 757 mmHg 45%
    18:00 +17°C° 0 mm 4 mps 757 mmHg 48%
    19:00 +15°C° 0 mm 4 mps 758 mmHg 51%
    20:00 +13°C° 0 mm 4 mps 758 mmHg 56%
    21:00 +11°C° 0 mm 4 mps 759 mmHg 62%
    22:00 +10°C° 0 mm 4 mps 759 mmHg 68%
    23:00 +8°C° 0 mm 4 mps 759 mmHg 69%

    Day after tomorrow, 9 June, Tuesday

    Time Temperature Precipitation Wind Pressure Humidity
    00:00 +8°C° 0 mm 3 mps 760 mmHg 70%
    01:00 +7°C° 0 mm 3 mps 760 mmHg 71%
    02:00 +8°C° 0 mm 3 mps 761 mmHg 70%
    03:00 +8°C° 0 mm 3 mps 761 mmHg 68%
    04:00 +8°C° 0 mm 2 mps 761 mmHg 67%
    05:00 +10°C° 0 mm 2 mps 762 mmHg 62%
    06:00 +13°C° 0 mm 2 mps 762 mmHg 57%
    07:00 +14°C° 0 mm 1 mps 762 mmHg 51%
    08:00 +16°C° 0 mm 1 mps 763 mmHg 47%
    09:00 +18°C° 0 mm 1 mps 763 mmHg 43%
    10:00 +20°C° 0 mm 1 mps 763 mmHg 39%
    11:00 +20°C° 0 mm 1 mps 763 mmHg 39%
    12:00 +19°C° 0 mm 2 mps 763 mmHg 38%
    13:00 +19°C° 0 mm 2 mps 763 mmHg 38%
    14:00 +18°C° 0 mm 2 mps 763 mmHg 39%
    15:00 +18°C° 0 mm 2 mps 763 mmHg 40%
    16:00 +18°C° 0 mm 3 mps 763 mmHg 41%
    17:00 +17°C° 0 mm 2 mps 763 mmHg 45%
    18:00 +16°C° 0 mm 2 mps 763 mmHg 49%
    19:00 +15°C° 0 mm 1 mps 763 mmHg 53%
    20:00 +14°C° 0 mm 1 mps 763 mmHg 56%
    21:00 +12°C° 0 mm 1 mps 764 mmHg 60%
    22:00 +10°C° 0 mm 0 mps 764 mmHg 63%
    23:00 +9°C° 0 mm 0 mps 764 mmHg 65%

    10 June, Wednesday

    Time Temperature Precipitation Wind Pressure Humidity
    00:00 +8°C° 0 mm 0 mps 764 mmHg 67%
    01:00 +8°C° 0 mm 0 mps 764 mmHg 68%
    02:00 +9°C° 0 mm 0 mps 764 mmHg 66%
    03:00 +9°C° 0 mm 0 mps 763 mmHg 64%
    04:00 +10°C° 0 mm 0 mps 763 mmHg 63%
    05:00 +13°C° 0 mm 1 mps 763 mmHg 57%
    06:00 +14°C° 0 mm 1 mps 763 mmHg 51%
    07:00 +16°C° 0 mm 1 mps 763 mmHg 45%
    08:00 +18°C° 0 mm 1 mps 763 mmHg 42%
    09:00 +18°C° 0 mm 2 mps 763 mmHg 39%
    10:00 +18°C° 0 mm 2 mps 763 mmHg 36%
    11:00 +19°C° 0 mm 2 mps 763 mmHg 36%
    12:00 +20°C° 0 mm 1 mps 762 mmHg 36%
    13:00 +21°C° 0 mm 1 mps 762 mmHg 36%
    14:00 +20°C° 0 mm 1 mps 762 mmHg 39%
    15:00 +20°C° 0 mm 1 mps 762 mmHg 41%
    16:00 +19°C° 0 mm 2 mps 762 mmHg 44%
    17:00 +19°C° 0 mm 1 mps 763 mmHg 48%
    18:00 +19°C° 0 mm 1 mps 763 mmHg 53%
    19:00 +18°C° 0 mm 1 mps 763 mmHg 58%
    20:00 +16°C° 0 mm 1 mps 763 mmHg 62%
    21:00 +14°C° 0 mm 2 mps 764 mmHg 65%
    22:00 +13°C° 0 mm 2 mps 764 mmHg 69%
    23:00 +13°C° 0 mm 2 mps 764 mmHg 71%

    11 June, Thursday

    Time Temperature Precipitation Wind Pressure Humidity
    00:00 +11°C° 0 mm 3 mps 765 mmHg 72%
    01:00 +11°C° 0 mm 3 mps 765 mmHg 73%
    02:00 +11°C° 0 mm 3 mps 765 mmHg 72%
    03:00 +12°C° 0 mm 3 mps 765 mmHg 70%
    04:00 +12°C° 0 mm 3 mps 766 mmHg 69%
    05:00 +14°C° 0 mm 3 mps 766 mmHg 66%
    06:00 +16°C° 0 mm 3 mps 766 mmHg 64%
    07:00 +17°C° 0 mm 3 mps 767 mmHg 61%
    08:00 +18°C° 0 mm 3 mps 767 mmHg 57%
    09:00 +19°C° 0 mm 2 mps 767 mmHg 52%
    10:00 +20°C° 0 mm 2 mps 767 mmHg 48%
    11:00 +20°C° 0.1 mm 2 mps 767 mmHg 49%
    12:00 +21°C° 0.1 mm 1 mps 768 mmHg 49%
    13:00 +21°C° 0.1 mm 1 mps 768 mmHg 50%
    14:00 +20°C° 0 mm 1 mps 768 mmHg 52%
    15:00 +20°C° 0 mm 1 mps 768 mmHg 55%
    16:00 +19°C° 0 mm 1 mps 768 mmHg 57%
    17:00 +19°C° 0 mm 1 mps 769 mmHg 59%
    18:00 +17°C° 0 mm 2 mps 769 mmHg 60%
    19:00 +17°C° 0 mm 2 mps 769 mmHg 61%
    20:00 +15°C° 0 mm 2 mps 769 mmHg 66%
    21:00 +13°C° 0 mm 2 mps 770 mmHg 72%
    22:00 +12°C° 0 mm 2 mps 770 mmHg 77%
    23:00 +11°C° 0 mm 1 mps 771 mmHg 80%

    12 June, Friday

    Time Temperature Precipitation Wind Pressure Humidity
    00:00 +10°C° 0 mm 1 mps 771 mmHg 83%
    01:00 +10°C° 0 mm 1 mps 771 mmHg 86%
    02:00 +10°C° 0 mm 0 mps 771 mmHg 83%
    03:00 +10°C° 0 mm 0 mps 771 mmHg 79%
    04:00 +11°C° 0 mm 0 mps 771 mmHg 76%
    05:00 +14°C° 0 mm 1 mps 771 mmHg 70%
    06:00 +15°C° 0 mm 1 mps 771 mmHg 64%
    07:00 +16°C° 0 mm 2 mps 771 mmHg 58%
    08:00 +17°C° 0 mm 2 mps 771 mmHg 56%
    09:00 +18°C° 0 mm 2 mps 771 mmHg 53%
    10:00 +18°C° 0 mm 2 mps 771 mmHg 51%
    11:00 +18°C° 0 mm 3 mps 771 mmHg 51%
    12:00 +18°C° 0 mm 3 mps 771 mmHg 51%
    13:00 +18°C° 0 mm 3 mps 770 mmHg 51%
    14:00 +18°C° 0 mm 3 mps 770 mmHg 50%
    15:00 +18°C° 0 mm 3 mps 770 mmHg 50%
    16:00 +18°C° 0 mm 3 mps 770 mmHg 50%
    17:00 +17°C° 0 mm 3 mps 770 mmHg 51%
    18:00 +17°C° 0 mm 2 mps 770 mmHg 53%
    19:00 +16°C° 0 mm 2 mps 770 mmHg 54%
    20:00 +15°C° 0 mm 2 mps 770 mmHg 57%
    21:00 +14°C° 0 mm 2 mps 770 mmHg 61%
    22:00 +12°C° 0 mm 1 mps 770 mmHg 64%
    23:00 +13°C° 0 mm 1 mps 771 mmHg 62%
    Show more